Regional Weather Roundup
Issued by NWS

Home | Current Version | Previous Version | Text Only | Print | Product List | Glossary Off
Versions: 1 2 3 4 5 6 7 8 9 10 11 12 13 14 15 16 17 18 19 20 21 22 23 24 25 26 27 28 29 30 31 32 33 34 35 36 37 38 39 40 41 42 43 44 45 46 47 48 49 50

000
ASUS44 KMEG 110810
RWRTN
TENNESSEE HOURLY STATE WEATHER ROUNDUP
NATIONAL WEATHER SERVICE MEMPHIS TN
200 AM CST MON DEC 11 2017

TNZ002-004-019-021-049-052-054-088>092-110900-
WEST TENNESSEE

CITY           SKY/WX    TMP DP  RH WIND       PRES   REMARKS
MEMPHIS INTL   CLEAR     39  31  72 CALM      30.18S
NWS MEMPHIS      N/A     34 N/A N/A MISG        N/A
JACKSON        CLEAR     33  28  81 S5        30.17S WCI  29
DYERSBURG      CLEAR     39  31  72 SW3       30.17S
SOMERVILLE     CLEAR     39  30  70 SW3       30.16S
COVINGTON      CLEAR     32  28  86 CALM      30.17S
UNION CITY     CLEAR     28  25  86 NE3       30.15S
BOLIVAR        CLEAR     41  30  65 CALM      30.16S
PARIS          CLEAR     32  27  80 CALM      30.14S
HUNTINGDON     CLEAR     32  27  80 CALM      30.14F
LEXINGTON      CLEAR     30  27  86 CALM      30.17S
SAVANNAH       CLEAR     30  28  93 CALM      30.17S
$$

TNZ008-025-027-028-033-062-065-066-110900-
NORTH MIDDLE TENNESSEE

CITY           SKY/WX    TMP DP  RH WIND       PRES   REMARKS
NASHVILLE      CLEAR     38  25  59 CALM      30.17S
PORTLAND       CLEAR     32  25  74 S5        30.14F WCI  27
CLARKSVILLE    CLEAR     34  24  67 CALM      30.15F
SMYRNA         CLEAR     28  23  81 CALM      30.18S
COOKEVILLE     CLEAR     25  21  86 CALM      30.15S
GALLATIN       CLEAR     28  23  80 CALM      30.18F
CROSSVILLE     CLEAR     28  20  71 CALM      30.14S
$$

TNZ061-075-076-078-094-096-097-110900-
SOUTH MIDDLE TENNESSEE

CITY           SKY/WX    TMP DP  RH WIND       PRES   REMARKS
FAYETTEVILLE   CLEAR     34  25  69 CALM      30.16F
TULLAHOMA      CLEAR     28  23  80 CALM      30.16S
MCMINNVILLE    CLEAR     34  23  64 CALM      30.16S
COLUMBIA       CLEAR     37  25  60 CALM      30.15S
SHELBYVILLE    CLEAR     30  23  74 CALM      30.17S
$$

TNZ017-018-042-046-047-110900-
NORTHEAST TENNESSEE

CITY           SKY/WX    TMP DP  RH WIND       PRES   REMARKS
TRI CITIES     CLEAR     25  20  81 CALM      30.15S
ELIZABETHTON   CLEAR     25  21  86 CALM      30.15S
$$

TNZ012-013-036-069-073-074-110900-
CENTRAL EAST TENNESSEE

CITY           SKY/WX    TMP DP  RH WIND       PRES   REMARKS
KNOXVILLE      CLEAR     34  26  72 CALM      30.17S
OAK RIDGE      CLEAR     30  24  78 CALM      30.19F
DOWNTOWN KNOXV   N/A     30  25  80 CALM      30.19S
GATLINBURG     CLEAR     37  21  52 SW3       30.17S
MORRISTOWN     PTCLDY    36  21  55 W7        30.15S WCI  30
JACKSBORO      CLEAR     27  23  86 CALM      30.19F
$$

TNZ083-085-099-110900-
SOUTHEAST TENNESSEE

CITY           SKY/WX    TMP DP  RH WIND       PRES   REMARKS
CHATTANOOGA    CLEAR     31  25  78 CALM      30.19F
DAYTON         PTSUNNY   27  27 100 CALM      30.18S
$$

SKY/WX REPORTED AS FAIR MEANS FEW OR NO CLOUDS BELOW
12 THOUSAND FEET.





USA.gov is the U.S. government's official web portal to all federal, state and local government web resources and services.